This is the latest recevied weather packets stored in our database for station/object YB2YEN-13. If no packets are shown the sender has not sent any weather packets the latest 10 day(s).
| Time | Temp. | Humidity | Pressure | Rain* | Wind** | Luminosity | Snow |
|---|---|---|---|---|---|---|---|
| 1777110607 | 30.56° C | 99% | 977 hPa | - | - | 0 W/m² | - |
| 1777110285 | 30.56° C | 99% | 977 hPa | - | - | 0 W/m² | - |
| 1777109963 | 31.11° C | 99% | 977 hPa | - | - | 0 W/m² | - |
| 1777109641 | 30.56° C | 99% | 977 hPa | - | - | 0 W/m² | - |
| 1777109319 | 31.11° C | 99% | 977 hPa | - | - | 0 W/m² | - |
| 1777108997 | 31.11° C | 99% | 977 hPa | - | - | 0 W/m² | - |
| 1777108675 | 31.11° C | 98% | 977 hPa | - | - | 0 W/m² | - |
| 1777108353 | 31.67° C | 98% | 977 hPa | - | - | 0 W/m² | - |
| 1777108031 | 31.11° C | 98% | 977 hPa | - | - | 0 W/m² | - |
| 1777107709 | 31.67° C | 96% | 976 hPa | - | - | 0 W/m² | - |
| 1777107387 | 31.67° C | 97% | 976 hPa | - | - | 0 W/m² | - |
| 1777107065 | 31.67° C | 94% | 976 hPa | - | - | 0 W/m² | - |
| 1777106743 | 31.11° C | 99% | 976 hPa | - | - | 0 W/m² | - |
| 1777106421 | 31.67° C | 99% | 976 hPa | - | - | 0 W/m² | - |
| 1777106099 | 31.67° C | 98% | 976 hPa | - | - | 0 W/m² | - |
| 1777105777 | 31.67° C | 92% | 976 hPa | - | - | 0 W/m² | - |
| 1777105455 | 31.67° C | 93% | 976 hPa | - | - | 0 W/m² | - |
| 1777105133 | 31.67° C | 82% | 976 hPa | - | - | 0 W/m² | - |
| 1777104811 | 32.22° C | 71% | 976 hPa | - | - | 0 W/m² | - |
| 1777104489 | 32.78° C | 66% | 975 hPa | - | - | 0 W/m² | - |
| 1777104167 | 32.22° C | 64% | 976 hPa | - | - | 0 W/m² | - |
| 1777103845 | 32.78° C | 58% | 975 hPa | - | - | 0 W/m² | - |
* Rain since midnight (hover to see other rain measurements)
** Current wind speed in m/s (hover to see current wind gust speed)